Regional Weather Roundup
Issued by NWS

Home | Current Version | Previous Version | Graphics & Text | Print | Product List | Glossary On
Versions: 1 2 3 4 5 6 7 8 9 10 11 12 13 14 15 16 17 18 19 20 21 22 23 24 25 26 27 28 29 30 31 32 33 34 35 36 37 38 39 40 41 42 43 44 45 46 47 48 49 50
000
ASUS43 KDMX 222201
RWRIA

WEATHER ROUNDUP FOR IOWA
NATIONAL WEATHER SERVICE DES MOINES IA
500 PM CDT THU JUN 22 2017

NOTE: "FAIR" INDICATES FEW OR NO CLOUDS BELOW 12,000 FEET WITH NO
SIGNIFICANT WEATHER AND/OR OBSTRUCTIONS TO VISIBILITY.

* - THESE STATIONS ARE NOT NWS STATIONS...THUS NOT UNDER NWS
QUALITY CONTROL.  THEY ALSO DO NOT REPORT WEATHER SUCH
AS PRECIPITATION OR FOG.

IAZ001>003-012>014-020>022-031>034-043>046-222300-
   NORTHWEST IOWA

CITY           SKY/WX    TMP DP  RH WIND       PRES   REMARKS
CARROLL *      CLOUDY    86  70  58 S12       29.65S HX  90
CHEROKEE *     CLOUDY    80  69  70 NE12      29.68R HX  83
DENISON *      PTSUNNY   86  68  54 W5        29.67R HX  89
LE MARS *      CLOUDY    82  63  51 N15G23    29.69F HX  83
ORANGE CITY *  PTSUNNY   81  64  57 N9        29.72R HX  82
SHELDON *      PTSUNNY   73  64  73 N16G25    29.72R
SIOUX CITY     CLOUDY    84  65  52 NE7       29.67R HX  86
SPENCER        CLOUDY    82  62  50 N16       29.70F HX  83
STORM LAKE *   MOSUNNY   81  68  65 NE10      29.69R HX  83
$$

IAZ055>058-069>071-079>083-090>094-222300-
   SOUTHWEST IOWA

CITY           SKY/WX    TMP DP  RH WIND       PRES   REMARKS
ATLANTIC *     PTSUNNY   86  70  58 S9        29.65S HX  90
AUDUBON *      MOSUNNY   84  72  65 S10       29.67S HX  89
CLARINDA *     SUNNY     86  70  58 S10G17    29.65S HX  90
COUNCIL BLFS * MOSUNNY   86  72  62 SE6       29.64S HX  92
CRESTON *      MOSUNNY   86  70  58 S17G24    29.67R HX  90
HARLAN  *      PTSUNNY   86  70  58 SW9       29.68S HX  90
LAMONI         MOSUNNY   86  71  60 S16G22    29.65F HX  91
RED OAK *      MOSUNNY   88  72  58 S9G17     29.64S HX  94
SHENANDOAH *   MOSUNNY   88  70  55 S15G21    29.64R HX  92
$$

IAZ047>049-059>061-072>074-084-222300-
   CENTRAL IOWA

CITY           SKY/WX    TMP DP  RH WIND       PRES   REMARKS
AMES           CLOUDY    86  67  52 SW14G22   29.65S HX  89
ANKENY *       PTSUNNY   86  64  48 S15       29.66R HX  87
BOONE *        CLOUDY    86  68  54 SW10      29.65F HX  89
CHARITON *     CLOUDY    88  70  55 S16G23    29.65F HX  92
DES MOINES     PTSUNNY   86  67  52 SW16      29.65S HX  89
GRINNELL*      CLOUDY    83  71  65 S5        29.68S HX  88
KNOXVILLE *    LGT RAIN  84  70  61 S8        29.65R HX  88
MARSHALLTOWN   CLOUDY    86  71  60 S14       29.65F HX  91
NEWTON *       CLOUDY    84  73  70 S12       29.65F HX  91
PELLA *        CLOUDY    84  67  57 CALM      29.67R HX  87
PERRY *          N/A     86  64  47 S9        29.65F HX  88
$$

IAZ004>006-015-016-023>025-035-036-222300-
   NORTH CENTRAL IOWA

CITY           SKY/WX    TMP DP  RH WIND       PRES   REMARKS
ALGONA *       CLOUDY    77  70  78 E6        29.69S
CLARION *        N/A     75  73  94 NE10G17   29.68R
ESTHERVILLE    CLOUDY    77  65  66 N14       29.71F
FORT DODGE *   CLOUDY    77  68  73 N8        29.68R
MASON CITY     CLOUDY    73  69  87 NE8       29.71S
FOREST CITY *  CLOUDY    77  63  61 E6        29.69F
WEBSTER CITY * CLOUDY    84  72  65 S8G16     29.63F HX  89
IOWA FALLS *   PTSUNNY   84  69  60 S7        29.69F HX  88
$$

IAZ007>011-017>019-026>030-037>042-050>054-066-222300-
   NORTHEAST IOWA

CITY           SKY/WX    TMP DP  RH WIND       PRES   REMARKS
CEDAR RAPIDS   MOSUNNY   85  74  69 S7        29.67F HX  92
CHARLES CITY * CLOUDY    79  73  83 S6        29.70F HX  82
CLINTON *      SUNNY     86  72  62 S24G30    29.66F HX  92
DECORAH *      CLOUDY    75  70  83 CALM      29.72R
DUBUQUE        PTSUNNY   81  69  67 S8        29.71F HX  84
MONTICELLO *   PTSUNNY   84  72  65 W6        29.69S HX  89
OELWEIN *      CLOUDY    79  73  83 SE6       29.70F HX  82
WATERLOO       PTSUNNY   83  70  64 SW6       29.67F HX  87
$$

IAZ064-065-067-068-078-222300-
   EAST CENTRAL IOWA

CITY           SKY/WX    TMP DP  RH WIND       PRES   REMARKS
DAVENPORT      SUNNY     84  70  62 S18G25    29.68F HX  88
IOWA CITY      PTSUNNY   87  70  56 S13G18    29.68R HX  92
MT. PLEASANT * MOSUNNY   86  69  56 S15G22    29.69F HX  90
MUSCATINE *    MOSUNNY   88  70  55 S20G25    29.67F HX  92
QUAD CITIES    SUNNY     86  70  58 S14G24    29.69F HX  90
$$

IAZ062-063-075>077-085>089-095>099-222300-
   SOUTHEAST IOWA

CITY           SKY/WX    TMP DP  RH WIND       PRES   REMARKS
BURLINGTON     PTSUNNY   84  73  69 S14       29.71F HX  90
FAIRFIELD *    MOSUNNY   86  70  58 S15       29.67F HX  90
FORT MADISON * CLOUDY    84  73  70 S8        29.72F HX  91
KEOKUK *       PTSUNNY   84  72  65 S14       29.71F HX  89
OSKALOOSA *      N/A     85  68  58 S17G23    29.63F HX  88
OTTUMWA        CLOUDY    85  69  58 S14G24    29.62F HX  89
WASHINGTON *   SUNNY     86  72  62 S17G25    29.67F HX  92
$$

ABBREVIATIONS USED IN REMARKS
   TC - TEMPERATURES IN CELSIUS
  WCI - WIND CHILL INDEX
   HX - HEAT INDEX
  VSB - VISIBILITY
$$





USA.gov is the U.S. government's official web portal to all federal, state and local government web resources and services.